{"data":{"norad_id":46567,"epoch":"2026-05-25T03:29:20.944320Z","epoch_age_seconds":59519,"freshness":"FRESH","line1":"1 46567U 20070AM  26145.14538130  .00174482  00000+0  84971-3 0  9997","line2":"2 46567  53.0359  98.5421 0008426  73.3392 286.8554 15.81332801312366","mean_motion":15.81332801,"eccentricity":0.0008426,"inclination_deg":53.0359,"raan_deg":98.5421,"arg_perigee_deg":73.3392,"mean_anomaly_deg":286.8554,"bstar":0.00084971,"rev_number":31236,"period_min":91.062425258578,"perigee_km":321.02115643321,"apogee_km":332.32009824681,"semimajor_km":6704.80762734,"source":"CELESTRAK","updated_at":"2026-05-25T13:38:16.513102Z"}}